Time,TemperatureF,DewpointF,PressureIn,WindDirection,WindDirectionDegrees,WindSpeedMPH,WindSpeedGustMPH,Humidity,HourlyPrecipIn,Conditions,Clouds,dailyrainin,SoftwareType,DateUTC
2013-01-05 00:06:00,14.7,-1.0,30.25,NE,55,0.0,1.0,50,0.00,,,0.00,weatherlink.com 1.10,2013-01-05 07:06:00,
2013-01-05 00:21:00,16.0,0.0,30.25,ESE,110,0.0,2.0,50,0.00,,,0.00,weatherlink.com 1.10,2013-01-05 07:21:00,
2013-01-05 00:36:00,16.4,0.0,30.25,SSE,155,1.0,3.0,48,0.00,,,0.00,weatherlink.com 1.10,2013-01-05 07:36:00,
2013-01-05 00:51:00,18.9,1.0,30.23,SSW,200,0.0,5.0,45,0.00,,,0.00,weatherlink.com 1.10,2013-01-05 07:51:00,
2013-01-05 01:06:00,19.5,1.0,30.23,SSW,193,0.0,5.0,44,0.00,,,0.00,weatherlink.com 1.10,2013-01-05 08:06:00,
2013-01-05 01:21:00,21.1,1.0,30.24,West,259,0.0,7.0,42,0.00,,,0.00,weatherlink.com 1.10,2013-01-05 08:21:00,
2013-01-05 01:36:00,22.3,1.0,30.24,SW,225,1.0,4.0,40,0.00,,,0.00,weatherlink.com 1.10,2013-01-05 08:36:00,
2013-01-05 01:51:00,23.0,1.0,30.24,WSW,256,3.0,10.0,38,0.00,,,0.00,weatherlink.com 1.10,2013-01-05 08:51:00,
2013-01-05 02:06:00,22.9,1.0,30.24,ESE,115,1.0,4.0,39,0.00,,,0.00,weatherlink.com 1.10,2013-01-05 09:06:00,
2013-01-05 02:21:00,23.3,0.0,30.24,WSW,250,5.0,9.0,36,0.00,,,0.00,weatherlink.com 1.10,2013-01-05 09:21:00,
2013-01-05 02:36:00,23.9,-1.0,30.24,WNW,285,2.0,12.0,34,0.00,,,0.00,weatherlink.com 1.10,2013-01-05 09:36:00,
2013-01-05 02:51:00,23.8,-1.0,30.24,WSW,238,1.0,11.0,34,0.00,,,0.00,weatherlink.com 1.10,2013-01-05 09:51:00,
2013-01-05 03:06:00,23.4,-1.0,30.23,South,169,2.0,10.0,35,0.00,,,0.00,weatherlink.com 1.10,2013-01-05 10:06:00,
2013-01-05 03:21:00,23.3,-2.0,30.23,WSW,250,4.0,11.0,33,0.00,,,0.00,weatherlink.com 1.10,2013-01-05 10:21:00,
2013-01-05 03:36:00,23.5,-3.0,30.24,WSW,257,2.0,13.0,31,0.00,,,0.00,weatherlink.com 1.10,2013-01-05 10:36:00,
2013-01-05 03:51:00,23.6,-4.0,30.24,West,259,9.0,15.0,29,0.00,,,0.00,weatherlink.com 1.10,2013-01-05 10:51:00,
2013-01-05 04:06:00,23.2,-5.0,30.25,West,263,6.0,10.0,29,0.00,,,0.00,weatherlink.com 1.10,2013-01-05 11:06:00,
2013-01-05 04:21:00,23.5,-5.0,30.25,NNW,338,9.0,13.0,28,0.00,,,0.00,weatherlink.com 1.10,2013-01-05 11:21:00,
2013-01-05 04:36:00,22.7,-5.0,30.24,SW,229,2.0,9.0,29,0.00,,,0.00,weatherlink.com 1.10,2013-01-05 11:36:00,
2013-01-05 04:51:00,22.0,-5.0,30.25,WNW,293,1.0,8.0,30,0.00,,,0.00,weatherlink.com 1.10,2013-01-05 11:51:00,
2013-01-05 05:07:00,22.5,-9.0,30.26,WSW,242,3.0,14.0,25,0.00,,,0.00,weatherlink.com 1.10,2013-01-05 12:07:00,
2013-01-05 05:22:00,23.2,-10.0,30.26,West,262,4.0,18.0,23,0.00,,,0.00,weatherlink.com 1.10,2013-01-05 12:22:00,
2013-01-05 05:37:00,23.4,-10.0,30.26,West,274,8.0,14.0,22,0.00,,,0.00,weatherlink.com 1.10,2013-01-05 12:37:00,
2013-01-05 05:52:00,23.2,-10.0,30.26,West,262,6.0,11.0,23,0.00,,,0.00,weatherlink.com 1.10,2013-01-05 12:52:00,
2013-01-05 06:07:00,22.8,-8.0,30.26,WSW,238,7.0,12.0,25,0.00,,,0.00,weatherlink.com 1.10,2013-01-05 13:07:00,
2013-01-05 06:22:00,23.1,-9.0,30.28,NW,309,3.0,11.0,24,0.00,,,0.00,weatherlink.com 1.10,2013-01-05 13:22:00,
2013-01-05 06:37:00,23.2,-9.0,30.28,NNW,327,5.0,12.0,24,0.00,,,0.00,weatherlink.com 1.10,2013-01-05 13:37:00,
2013-01-05 06:52:00,23.7,-9.0,30.28,NW,304,4.0,17.0,23,0.00,,,0.00,weatherlink.com 1.10,2013-01-05 13:52:00,
2013-01-05 07:07:00,24.2,-9.0,30.30,WNW,301,4.0,17.0,23,0.00,,,0.00,weatherlink.com 1.10,2013-01-05 14:07:00,
2013-01-05 07:22:00,24.3,-9.0,30.29,SE,144,1.0,13.0,23,0.00,,,0.00,weatherlink.com 1.10,2013-01-05 14:22:00,
2013-01-05 07:37:00,23.5,-8.0,30.29,WNW,302,3.0,13.0,25,0.00,,,0.00,weatherlink.com 1.10,2013-01-05 14:37:00,
2013-01-05 07:52:00,22.8,-8.0,30.30,ESE,120,1.0,6.0,25,0.00,,,0.00,weatherlink.com 1.10,2013-01-05 14:52:00,
2013-01-05 08:08:00,23.7,-7.0,30.30,WSW,253,6.0,6.0,25,0.00,,,0.00,weatherlink.com 1.10,2013-01-05 15:08:00,
2013-01-05 08:22:00,25.0,-7.0,30.29,South,172,2.0,10.0,24,0.00,,,0.00,weatherlink.com 1.10,2013-01-05 15:22:00,
2013-01-05 08:37:00,26.4,-7.0,30.29,WNW,290,3.0,13.0,23,0.00,,,0.00,weatherlink.com 1.10,2013-01-05 15:37:00,
2013-01-05 08:52:00,27.8,-7.0,30.28,SW,221,14.0,17.0,22,0.00,,,0.00,weatherlink.com 1.10,2013-01-05 15:52:00,
2013-01-05 09:07:00,29.4,-6.0,30.28,NNE,33,13.0,21.0,21,0.00,,,0.00,weatherlink.com 1.10,2013-01-05 16:07:00,
2013-01-05 09:22:00,30.0,-7.0,30.28,WSW,238,13.0,20.0,20,0.00,,,0.00,weatherlink.com 1.10,2013-01-05 16:22:00,
2013-01-05 09:37:00,30.6,-6.0,30.30,WSW,248,10.0,16.0,20,0.00,,,0.00,weatherlink.com 1.10,2013-01-05 16:37:00,
2013-01-05 09:52:00,31.1,-7.0,30.30,SSE,150,10.0,12.0,19,0.00,,,0.00,weatherlink.com 1.10,2013-01-05 16:52:00,
2013-01-05 10:07:00,31.1,-8.0,30.30,SW,233,12.0,20.0,18,0.00,,,0.00,weatherlink.com 1.10,2013-01-05 17:07:00,
2013-01-05 10:22:00,31.7,-8.0,30.32,West,276,13.0,15.0,18,0.00,,,0.00,weatherlink.com 1.10,2013-01-05 17:22:00,
2013-01-05 10:37:00,31.7,-8.0,30.32,WNW,290,11.0,15.0,18,0.00,,,0.00,weatherlink.com 1.10,2013-01-05 17:37:00,
2013-01-05 10:52:00,32.0,-6.0,30.32,West,266,8.0,17.0,19,0.00,,,0.00,weatherlink.com 1.10,2013-01-05 17:52:00,
2013-01-05 11:07:00,32.1,-6.0,30.31,SW,231,9.0,14.0,19,0.00,,,0.00,weatherlink.com 1.10,2013-01-05 18:07:00,
2013-01-05 11:22:00,32.5,-6.0,30.31,West,270,6.0,13.0,19,0.00,,,0.00,weatherlink.com 1.10,2013-01-05 18:22:00,
2013-01-05 11:37:00,32.2,-4.0,30.31,West,266,0.0,11.0,21,0.00,,,0.00,weatherlink.com 1.10,2013-01-05 18:37:00,
2013-01-05 11:52:00,32.0,-5.0,30.31,WNW,287,1.0,17.0,20,0.00,,,0.00,weatherlink.com 1.10,2013-01-05 18:52:00,
2013-01-05 12:07:00,31.8,-5.0,30.31,WNW,302,6.0,17.0,20,0.00,,,0.00,weatherlink.com 1.10,2013-01-05 19:07:00,
2013-01-05 12:22:00,31.8,-4.0,30.31,NNE,29,4.0,12.0,21,0.00,,,0.00,weatherlink.com 1.10,2013-01-05 19:22:00,
2013-01-05 12:37:00,31.6,-2.0,30.31,North,6,1.0,20.0,24,0.00,,,0.00,weatherlink.com 1.10,2013-01-05 19:37:00,
2013-01-05 12:52:00,31.9,-1.0,30.30,NW,322,11.0,19.0,24,0.00,,,0.00,weatherlink.com 1.10,2013-01-05 19:52:00,
2013-01-05 13:07:00,31.0,0.0,30.31,WNW,298,10.0,20.0,26,0.00,,,0.00,weatherlink.com 1.10,2013-01-05 20:07:00,
2013-01-05 13:22:00,30.8,0.0,30.31,WNW,298,6.0,11.0,27,0.00,,,0.00,weatherlink.com 1.10,2013-01-05 20:22:00,
2013-01-05 13:37:00,30.9,0.0,30.32,North,351,9.0,18.0,26,0.00,,,0.00,weatherlink.com 1.10,2013-01-05 20:37:00,
2013-01-05 13:52:00,31.3,0.0,30.32,WSW,245,4.0,11.0,26,0.00,,,0.00,weatherlink.com 1.10,2013-01-05 20:52:00,
2013-01-05 14:08:00,31.0,1.0,30.33,WSW,238,1.0,13.0,27,0.00,,,0.00,weatherlink.com 1.10,2013-01-05 21:08:00,
2013-01-05 14:23:00,31.4,0.0,30.33,WSW,252,6.0,13.0,26,0.00,,,0.00,weatherlink.com 1.10,2013-01-05 21:23:00,
2013-01-05 14:38:00,31.7,1.0,30.33,NW,323,2.0,10.0,27,0.00,,,0.00,weatherlink.com 1.10,2013-01-05 21:38:00,
2013-01-05 14:53:00,32.0,1.0,30.33,NW,309,10.0,11.0,26,0.00,,,0.00,weatherlink.com 1.10,2013-01-05 21:53:00,
2013-01-05 15:08:00,31.8,0.0,30.34,WNW,283,4.0,11.0,25,0.00,,,0.00,weatherlink.com 1.10,2013-01-05 22:08:00,
2013-01-05 15:23:00,31.5,0.0,30.34,NW,324,2.0,14.0,26,0.00,,,0.00,weatherlink.com 1.10,2013-01-05 22:23:00,
2013-01-05 15:38:00,31.5,0.0,30.36,West,272,6.0,12.0,26,0.00,,,0.00,weatherlink.com 1.10,2013-01-05 22:38:00,
2013-01-05 15:53:00,31.3,0.0,30.36,NNW,331,4.0,10.0,26,0.00,,,0.00,weatherlink.com 1.10,2013-01-05 22:53:00,
2013-01-05 16:08:00,30.8,1.0,30.36,SSW,198,4.0,13.0,28,0.00,,,0.00,weatherlink.com 1.10,2013-01-05 23:08:00,
2013-01-05 16:24:00,30.1,0.0,30.36,NW,313,4.0,11.0,27,0.00,,,0.00,weatherlink.com 1.10,2013-01-05 23:24:00,
2013-01-05 16:38:00,28.9,0.0,30.37,WSW,240,6.0,11.0,29,0.00,,,0.00,weatherlink.com 1.10,2013-01-05 23:38:00,
2013-01-05 16:53:00,28.7,-1.0,30.37,SW,236,8.0,16.0,28,0.00,,,0.00,weatherlink.com 1.10,2013-01-05 23:53:00,
2013-01-05 17:08:00,28.5,0.0,30.38,WNW,282,8.0,21.0,29,0.00,,,0.00,weatherlink.com 1.10,2013-01-06 00:08:00,
2013-01-05 17:23:00,28.5,-1.0,30.38,WNW,291,6.0,19.0,28,0.00,,,0.00,weatherlink.com 1.10,2013-01-06 00:23:00,
2013-01-05 17:38:00,28.3,-1.0,30.39,WSW,237,8.0,20.0,28,0.00,,,0.00,weatherlink.com 1.10,2013-01-06 00:38:00,
2013-01-05 17:53:00,28.2,-1.0,30.40,WNW,283,8.0,23.0,28,0.00,,,0.00,weatherlink.com 1.10,2013-01-06 00:53:00,
2013-01-05 18:08:00,28.2,-2.0,30.40,West,266,9.0,23.0,27,0.00,,,0.00,weatherlink.com 1.10,2013-01-06 01:08:00,
2013-01-05 18:23:00,28.3,-3.0,30.41,West,259,4.0,21.0,26,0.00,,,0.00,weatherlink.com 1.10,2013-01-06 01:23:00,
2013-01-05 18:38:00,27.8,-3.0,30.41,WNW,297,11.0,11.0,26,0.00,,,0.00,weatherlink.com 1.10,2013-01-06 01:38:00,
2013-01-05 18:53:00,27.9,-5.0,30.41,SSW,212,8.0,15.0,24,0.00,,,0.00,weatherlink.com 1.10,2013-01-06 01:53:00,
2013-01-05 19:08:00,28.6,-5.0,30.41,WNW,299,6.0,17.0,23,0.00,,,0.00,weatherlink.com 1.10,2013-01-06 02:08:00,
2013-01-05 19:23:00,29.1,-6.0,30.41,WNW,288,5.0,15.0,21,0.00,,,0.00,weatherlink.com 1.10,2013-01-06 02:23:00,
2013-01-05 19:38:00,28.7,-6.0,30.42,West,276,10.0,14.0,22,0.00,,,0.00,weatherlink.com 1.10,2013-01-06 02:38:00,
2013-01-05 19:53:00,28.2,-4.0,30.41,West,269,2.0,12.0,24,0.00,,,0.00,weatherlink.com 1.10,2013-01-06 02:53:00,
2013-01-05 20:08:00,27.8,-4.0,30.42,WNW,287,7.0,13.0,25,0.00,,,0.00,weatherlink.com 1.10,2013-01-06 03:08:00,
2013-01-05 20:23:00,27.5,-3.0,30.41,West,273,8.0,15.0,26,0.00,,,0.00,weatherlink.com 1.10,2013-01-06 03:23:00,
2013-01-05 20:38:00,27.3,-4.0,30.41,West,266,3.0,17.0,26,0.00,,,0.00,weatherlink.com 1.10,2013-01-06 03:38:00,
2013-01-05 20:53:00,27.5,-3.0,30.41,WSW,252,4.0,14.0,26,0.00,,,0.00,weatherlink.com 1.10,2013-01-06 03:53:00,
2013-01-05 21:08:00,27.1,-4.0,30.41,South,187,8.0,9.0,26,0.00,,,0.00,weatherlink.com 1.10,2013-01-06 04:08:00,
2013-01-05 21:23:00,26.5,-3.0,30.41,SSW,194,2.0,12.0,27,0.00,,,0.00,weatherlink.com 1.10,2013-01-06 04:23:00,
2013-01-05 21:38:00,26.7,-4.0,30.41,WNW,287,3.0,15.0,26,0.00,,,0.00,weatherlink.com 1.10,2013-01-06 04:38:00,
2013-01-05 21:53:00,27.4,-6.0,30.40,SW,231,2.0,12.0,23,0.00,,,0.00,weatherlink.com 1.10,2013-01-06 04:53:00,
2013-01-05 22:08:00,26.5,-6.0,30.40,West,281,1.0,7.0,24,0.00,,,0.00,weatherlink.com 1.10,2013-01-06 05:08:00,
2013-01-05 22:23:00,27.1,-7.0,30.40,WSW,242,4.0,11.0,22,0.00,,,0.00,weatherlink.com 1.10,2013-01-06 05:23:00,
2013-01-05 22:38:00,27.1,-7.0,30.40,West,274,1.0,9.0,22,0.00,,,0.00,weatherlink.com 1.10,2013-01-06 05:38:00,
2013-01-05 22:53:00,27.7,-10.0,30.40,SW,224,5.0,13.0,19,0.00,,,0.00,weatherlink.com 1.10,2013-01-06 05:53:00,
2013-01-05 23:08:00,26.7,-9.0,30.40,SE,136,0.0,7.0,20,0.00,,,0.00,weatherlink.com 1.10,2013-01-06 06:08:00,
2013-01-05 23:23:00,25.8,-9.0,30.40,SW,232,2.0,6.0,21,0.00,,,0.00,weatherlink.com 1.10,2013-01-06 06:23:00,
2013-01-05 23:38:00,24.4,-10.0,30.40,East,97,1.0,2.0,22,0.00,,,0.00,weatherlink.com 1.10,2013-01-06 06:38:00,
2013-01-05 23:53:00,21.7,-9.0,30.39,ESE,113,1.0,3.0,25,0.00,,,0.00,weatherlink.com 1.10,2013-01-06 06:53:00,